Weather History for Torrington, WY

Change the Weather History Date:

Saturday, October 5, 2013

  Actual Average Record
Temperature  
Mean Temperature 39 °F 52 °F  
Max Temperature 46 °F 68 °F 86 °F (2007)
Min Temperature 31 °F 37 °F 25 °F (2000)
Degree Days  
Heating Degree Days 26 13  
Month to date heating degree days 92 60  
Since 1 July heating degree days 197 254  
Cooling Degree Days 0 0  
Month to date cooling degree days 0 0  
Year to date cooling degree days 893 678  
Moisture  
Dew Point 26 °F    
Average Humidity 65    
Maximum Humidity 85    
Minimum Humidity 45    
Precipitation  
Precipitation 0.00 in 0.04 in 0.11 in (2012)
Month to date precipitation 0.99 0.19  
Year to date precipitation 10.17 12.52  
Sea Level Pressure  
Sea Level Pressure 30.17 in    
Wind  
Wind Speed 22 mph (NW)    
Max Wind Speed 36 mph    
Max Gust Speed 48 mph    
Visibility 10 miles    
Events      
T = Trace of Precipitation, MM = Missing Value Source: NWS Daily Summary

Daily Weather History Graph

Daily Weather History Graph

Search for Another Location

Airport:

Trip Planner

Search our weather history database for the weather conditions in past years. The results will help you decide how hot, cold, wet, or windy it might be!

Date:

Astronomy

Oct. 05, 2013 Rise Set
Actual Time 6:58 AM MDT 6:30 PM MDT
Civil Twilight 6:30 AM MDT 6:58 PM MDT
Nautical Twilight 5:57 AM MDT 7:31 PM MDT
Astronomical Twilight 5:25 AM MDT 8:03 PM MDT
Moon 7:41 AM MDT (10/5) 6:49 PM MDT (10/5)
Length of Visible Light 12h 28m
Length of Day
11h 32m
New Moon, 1% of the Moon is Illuminated
Oct 5
New Moon
Oct 11
First Quarter
Oct 18
Full
Oct 26
Last Quarter
Nov 3
New

Hourly Weather History & Observations

Time (MDT) Temp. Windchill Dew Point Humidity Pressure Visibility Wind Dir Wind Speed Gust Speed Precip Events Conditions
12:48 AM 30.2 °F 14.7 °F 26.6 °F 86% 30.11 in 10.0 mi NW 32.2 mph 49.5 mph N/A   Mostly Cloudy
12:53 AM 30.9 °F 15.3 °F 26.1 °F 82% 30.19 in 10.0 mi NW 34.5 mph 43.7 mph N/A   Mostly Cloudy
1:06 AM 30.2 °F 15.7 °F 26.6 °F 86% 30.12 in 10.0 mi NW 27.6 mph 41.4 mph N/A   Mostly Cloudy
1:15 AM 30.2 °F 15.7 °F 26.6 °F 86% 30.12 in 10.0 mi NW 27.6 mph 43.7 mph N/A   Mostly Cloudy
1:53 AM 30.9 °F 15.5 °F 27.0 °F 85% 30.19 in 10.0 mi NW 33.4 mph 41.4 mph N/A   Overcast
2:13 AM 30.2 °F 15.2 °F 26.6 °F 86% 30.11 in 10.0 mi NW 29.9 mph 46.0 mph N/A   Overcast
2:27 AM 30.2 °F 15.9 °F 26.6 °F 86% 30.12 in 10.0 mi NW 26.5 mph 38.0 mph N/A   Overcast
2:53 AM 30.9 °F 17.2 °F 26.1 °F 82% 30.20 in 10.0 mi NW 25.3 mph 43.7 mph N/A   Mostly Cloudy
3:08 AM 30.2 °F 16.2 °F 26.6 °F 86% 30.12 in 10.0 mi NW 25.3 mph 39.1 mph N/A   Mostly Cloudy
3:53 AM 30.9 °F 16.7 °F 26.1 °F 82% 30.19 in 10.0 mi NW 27.6 mph 40.3 mph N/A   Partly Cloudy
4:53 AM 32.0 °F 19.2 °F 26.1 °F 79% 30.19 in 10.0 mi NW 23.0 mph 38.0 mph N/A   Partly Cloudy
5:53 AM 32.0 °F 19.2 °F 26.1 °F 79% 30.17 in 10.0 mi NW 23.0 mph 39.1 mph N/A   Overcast
6:53 AM 33.1 °F 19.3 °F 26.1 °F 75% 30.17 in 10.0 mi NW 28.8 mph 46.0 mph N/A   Clear
7:53 AM 33.1 °F 19.3 °F 26.1 °F 75% 30.18 in 10.0 mi WNW 28.8 mph 39.1 mph N/A   Clear
8:53 AM 35.1 °F 21.8 °F 26.1 °F 70% 30.19 in 10.0 mi NW 29.9 mph 47.2 mph N/A   Clear
9:53 AM 36.0 °F 24.4 °F 26.1 °F 67% 30.21 in 10.0 mi NW 23.0 mph 38.0 mph N/A   Partly Cloudy
10:53 AM 37.0 °F 25.1 °F 26.1 °F 65% 30.21 in 10.0 mi NW 26.5 mph 40.3 mph N/A   Clear
11:53 AM 37.9 °F 26.6 °F 26.1 °F 62% 30.20 in 10.0 mi NW 25.3 mph 35.7 mph N/A   Clear
12:53 PM 41.0 °F 30.7 °F 26.1 °F 55% 30.19 in 10.0 mi NW 25.3 mph 33.4 mph N/A   Clear
1:53 PM 43.0 °F 32.7 °F 26.1 °F 51% 30.16 in 10.0 mi NW 28.8 mph 44.9 mph N/A   Partly Cloudy
2:53 PM 45.0 °F 35.1 °F 25.0 °F 46% 30.15 in 10.0 mi NW 31.1 mph 46.0 mph N/A   Clear
3:53 PM 45.0 °F 35.6 °F 24.1 °F 44% 30.16 in 10.0 mi NW 27.6 mph 43.7 mph N/A   Clear
4:53 PM 45.0 °F 36.4 °F 24.1 °F 44% 30.14 in 10.0 mi NW 23.0 mph 36.8 mph N/A   Clear
5:53 PM 44.1 °F 35.4 °F 24.1 °F 45% 30.16 in 10.0 mi NW 21.9 mph 32.2 mph N/A   Clear
6:53 PM 41.0 °F 33.1 °F 25.0 °F 53% 30.17 in 10.0 mi NW 15.0 mph - N/A   Clear
7:53 PM 39.9 °F 32.1 °F 25.0 °F 55% 30.19 in 10.0 mi NNW 13.8 mph - N/A   Clear
8:53 PM 37.9 °F 30.0 °F 25.0 °F 60% 30.22 in 10.0 mi NNW 12.7 mph - N/A   Clear
9:53 PM 42.1 °F 33.6 °F 23.0 °F 47% 30.20 in 10.0 mi NW 18.4 mph 26.5 mph N/A   Clear
10:53 PM 37.9 °F 30.5 °F 25.0 °F 60% 30.20 in 10.0 mi West 11.5 mph - N/A   Clear
11:53 PM 39.9 °F 33.4 °F 25.0 °F 55% 30.19 in 10.0 mi NW 10.4 mph - N/A   Clear